Hourly Data Report for July 26, 2021

CAMPBELL RIVER A
BRITISH COLUMBIA
Current Station Operator: NAVCAN

49°57'07.000" N
125°16'23.000" W
108.80 m
1021270
YBL

Download Data

Hourly Data (July 2021)
Hourly Data Report for July 26, 2021
TIME
LST
Temp Definition
°C
Dew Point Definition
°C
Rel Hum Definition
%
Precip. Amount Definition
mm

Wind Dir Definition
10's deg

Wind Spd Definition
km/h
Visibility Definition
km
Stn Press Definition
kPa
Hmdx Definition


Wind Chill Definition


Weather Definition


00:00 16.0 12.2 78 LegendMM 29 7 LegendMM 100.28     LegendNANA
01:00 16.3 12.7 79 LegendMM 30 9 LegendMM 100.29     LegendNANA
02:00 15.8 12.7 81 LegendMM 30 9 LegendMM 100.30     LegendNANA
03:00 13.5 11.9 90 LegendMM 28 7 LegendMM 100.32     LegendNANA
04:00 13.0 11.3 89 LegendMM 34 3 LegendMM 100.30     LegendNANA
05:00 12.8 11.1 89 LegendMM 26 5 LegendMM 100.30     LegendNANA
06:00 15.1 12.6 85 LegendMM 30 3 LegendMM 100.29     LegendNANA
07:00 18.3 12.8 70 LegendMM 33 4 LegendMM 100.31     LegendNANA
08:00 20.7 12.2 58 LegendMM 32 9 LegendMM 100.30     LegendNANA
09:00 21.9 12.9 56 LegendMM 9 10 LegendMM 100.29 25   LegendNANA
10:00 22.6 12.1 51 LegendMM 9 8 LegendMM 100.28 25   LegendNANA
11:00 24.0 12.0 47 LegendMM 10 13 LegendMM 100.29 26   LegendNANA
12:00 23.3 12.3 50 LegendMM 7 9 LegendMM 100.27 26   LegendNANA
13:00 25.2 12.0 43 LegendMM 8 13 LegendMM 100.25 27   LegendNANA
14:00 25.4 10.8 39 LegendMM 10 14 LegendMM 100.24 27   LegendNANA
15:00 26.2 11.5 39 LegendMM 7 12 LegendMM 100.19 28   LegendNANA
16:00 26.2 11.5 39 LegendMM 5 8 LegendMM 100.14 28   LegendNANA
17:00 26.8 12.0 39 LegendMM 9 10 LegendMM 100.12 29   LegendNANA
18:00 25.8 13.1 45 LegendMM 33 14 LegendMM 100.12 29   LegendNANA
19:00 23.8 13.6 52 LegendMM 33 17 LegendMM 100.15 27   LegendNANA
20:00 21.1 13.9 63 LegendMM 29 13 LegendMM 100.20     LegendNANA
21:00 19.4 12.9 66 LegendMM 30 19 LegendMM 100.25     LegendNANA
22:00 18.0 12.5 70 LegendMM 30 14 LegendMM 100.29     LegendNANA
23:00 17.1 12.2 73 LegendMM 31 16 LegendMM 100.32     LegendNANA

Notes on Data Quality.

Legend

  • E = Estimated
  • M = Missing
  • NA = Not Available*
  • [empty] = Indicates an unobserved value
Date modified: